Weather History for Frederick, OK

Change the Weather History Date:

Friday, April 12, 2013

  Actual Average (KLTS) Record (KLTS)
Temperature  
Mean Temperature 54 °F -  
Max Temperature 66 °F 71 °F 91 °F (2014)
Min Temperature 43 °F 46 °F 28 °F (1997)
Degree Days  
Heating Degree Days 10    
Growing Degree Days 4 (Base 50)    
Moisture  
Dew Point 41 °F    
Average Humidity 64    
Maximum Humidity 86    
Minimum Humidity 42    
Precipitation  
Precipitation 0.00 in - - ()
Sea Level Pressure  
Sea Level Pressure 29.89 in    
Wind  
Wind Speed 10 mph (NE)    
Max Wind Speed 14 mph    
Max Gust Speed 20 mph    
Visibility 10 miles    
Events      
Averages and records for this station are not official NWS values.
T = Trace of Precipitation, MM = Missing Value Source: NWS Daily Summary

Daily Weather History Graph

Daily Weather History Graph

Search for Another Location

Airport:

Trip Planner

Search our weather history database for the weather conditions in past years. The results will help you decide how hot, cold, wet, or windy it might be!

Date:

Astronomy

Apr. 12, 2013 Rise Set
Actual Time 7:08 AM CDT 8:05 PM CDT
Civil Twilight 6:42 AM CDT 8:31 PM CDT
Nautical Twilight 6:12 AM CDT 9:01 PM CDT
Astronomical Twilight 5:40 AM CDT 9:33 PM CDT
Moon 8:24 AM CDT (4/12) 10:31 PM CDT (4/12)
Length of Visible Light 13h 48m
Length of Day
12h 57m
Waxing Crescent, 5% of the Moon is Illuminated
Apr 12
Waxing Crescent
Apr 18
First Quarter
Apr 25
Full
May 2
Last Quarter
May 9
New

Hourly Weather History & Observations

Time (CDT) Temp. Windchill Dew Point Humidity Pressure Visibility Wind Dir Wind Speed Gust Speed Precip Events Conditions
12:53 AM 43.0 °F 37.2 °F 39.0 °F 86% 29.82 in 10.0 mi North 10.4 mph - N/A   Clear
1:53 AM 43.0 °F 37.7 °F 37.9 °F 82% 29.84 in 10.0 mi North 9.2 mph - N/A   Clear
2:53 AM 45.0 °F 41.8 °F 37.9 °F 76% 29.85 in 10.0 mi NNW 5.8 mph - N/A   Clear
3:53 AM 44.1 °F 39.0 °F 37.9 °F 79% 29.86 in 10.0 mi North 9.2 mph - N/A   Clear
4:53 AM 46.0 °F 43.1 °F 37.0 °F 71% 29.86 in 10.0 mi North 5.8 mph - N/A   Clear
5:53 AM 45.0 °F 38.9 °F 37.9 °F 76% 29.86 in 10.0 mi NNE 12.7 mph - N/A   Clear
6:53 AM 44.1 °F 39.5 °F 37.0 °F 76% 29.88 in 10.0 mi North 8.1 mph - N/A   Clear
7:53 AM 46.0 °F 41.4 °F 37.9 °F 73% 29.91 in 10.0 mi North 9.2 mph - N/A   Clear
8:53 AM 48.0 °F - 39.9 °F 74% 29.94 in 10.0 mi NNE 3.5 mph - N/A   Partly Cloudy
9:53 AM 48.9 °F - 39.9 °F 71% 29.97 in 10.0 mi East 5.8 mph - N/A   Clear
10:53 AM 53.1 °F - 39.9 °F 61% 29.97 in 10.0 mi East 11.5 mph - N/A   Clear
11:53 AM 55.9 °F - 41.0 °F 57% 29.99 in 10.0 mi East 10.4 mph - N/A   Clear
12:53 PM 60.1 °F - 42.1 °F 51% 29.97 in 10.0 mi East 11.5 mph - N/A   Clear
1:53 PM 61.0 °F - 42.1 °F 50% 29.94 in 10.0 mi East 11.5 mph - N/A   Clear
2:53 PM 63.0 °F - 43.0 °F 48% 29.92 in 10.0 mi ENE 13.8 mph - N/A   Clear
3:53 PM 66.0 °F - 44.1 °F 45% 29.88 in 10.0 mi ENE 12.7 mph - N/A   Clear
4:53 PM 66.9 °F - 43.0 °F 42% 29.86 in 10.0 mi East 13.8 mph 19.6 mph N/A   Clear
5:53 PM 66.9 °F - 44.1 °F 44% 29.85 in 10.0 mi East 11.5 mph - N/A   Clear
6:53 PM 64.9 °F - 45.0 °F 48% 29.85 in 10.0 mi ENE 10.4 mph - N/A   Clear
7:53 PM 60.1 °F - 46.0 °F 60% 29.84 in 10.0 mi ENE 9.2 mph - N/A   Clear
8:53 PM 57.0 °F - 45.0 °F 64% 29.85 in 10.0 mi ENE 12.7 mph - N/A   Clear
9:53 PM 55.9 °F - 43.0 °F 62% 29.86 in 10.0 mi ENE 13.8 mph - N/A   Clear
10:53 PM 54.0 °F - 43.0 °F 66% 29.87 in 10.0 mi ENE 11.5 mph - N/A   Clear
11:53 PM 53.1 °F - 43.0 °F 69% 29.88 in 10.0 mi ENE 12.7 mph - N/A   Clear